Regional Weather Roundup
Issued by NWS Sterling, VA

Home | Current Version | Previous Version | Text Only | Print | Product List | Glossary On
Versions: 1 2 3 4 5 6 7 8 9 10 11 12 13 14 15 16 17 18 19 20 21 22 23 24 25 26 27 28 29 30 31 32 33 34 35 36 37 38 39 40 41 42 43 44 45 46 47 48 49 50
000
ASUS41 KLWX 271710
RWRLWX

REGIONAL WEATHER ROUNDUP
NATIONAL WEATHER SERVICE BALTIMORE MD/WASHINGTON DC
100 PM EDT FRI MAR 27 2015

Note: "FAIR" indicates few or no clouds below 12,000 feet
with no significant weather and/or obstructions to visibility.
 TC=TEMPERATURE CELSIUS

 * =Non NWS site. Station does not report precipitation (e.g. rain,
    snow, etc.), thunder, or fog.

DCZ001-MDZ009-015-VAZ040>042-051-053>054-271800-
WASHINGTON METRO

CITY           SKY/WX    TMP DP  RH WIND       PRES   REMARKS
WASHINGTON NAT CLOUDY    47  33  58 N15       29.81F
DULLES         CLOUDY    45  31  58 NW14G20   29.81F
ANDREWS AFB    LGT RAIN  43  36  75 N8        29.79R
FT BELVOIR     CLOUDY    44  36  72 NW6       29.81F
QUANTICO       CLOUDY    44  36  73 CALM      29.84F
COLLEGE PARK*  CLOUDY    45  34  65 N7        29.79F
LEESBURG*      CLOUDY    45  32  61 N12G18    29.82F
MANASSAS*      MOSUNNY   45  36  70 N9        29.82
GAITHERSBURG*  CLOUDY    43  30  61 N8        29.83F

$$

MDZ006>007-011-014-271800-
BALTIMORE METRO

CITY           SKY/WX    TMP DP  RH WIND       PRES   REMARKS
BWI AIRPORT    CLOUDY    45  33  63 NW7       29.78F
MD SCIENCE CTR   N/A     45  31  58 MISG      29.79F
MARTIN STATE   CLOUDY    45  37  76 NW7       29.81S
ANNAPOLIS      LGT RAIN  43  36  76 NE3       29.79F

$$

MDZ012-015-019>023-271800-
MARYLAND EASTERN SHORE

CITY           SKY/WX    TMP DP  RH WIND       PRES   REMARKS
OCEAN CITY     CLOUDY    42  34  73 N14G25    29.76F
SALISBURY      LGT RAIN  41  38  89 N10       29.78R FOG
BAY BRIDGE AP*   N/A     43  36  75 N3        29.79F
CAMBRIDGE*     CLOUDY    41  36  81 N10G16    29.79S
EASTON*        LGT RAIN  41  39  93 N10       29.83S

$$

MDZ017>025-271800-
SOUTHERN MARYLAND

CITY           SKY/WX    TMP DP  RH WIND       PRES   REMARKS
PATUXENT RIVER LGT RAIN  40  36  86 N16G23    29.81F FOG
ST INIGOES     LGT RAIN  41  35  79 VRB7      29.81S
LEONARDTOWN*   CLOUDY    37  36  93 N3        29.82F

$$

MDZ003>005-271800-
NORTH CENTRAL MARYLAND

CITY           SKY/WX    TMP DP  RH WIND       PRES   REMARKS
FREDERICK*     PTSUNNY   46  25  42 NW12      29.83F
HAGERSTOWN APT CLOUDY    45  25  45 NW10G20   29.81F
WESTMINSTER*   CLOUDY    43  28  56 N8        29.80F

$$

MDZ501>502-271800-
WESTERN MARYLAND

CITY           SKY/WX    TMP DP  RH WIND       PRES   REMARKS
OAKLAND*       CLOUDY    30  30 100 NW6       29.76F
CUMBERLAND*    CLOUDY    43  25  49 NW9       29.85F

$$

VAZ025>031-271800-
SHENANDOAH VALLEY

CITY           SKY/WX    TMP DP  RH WIND       PRES   REMARKS
WINCHESTER*    CLOUDY    45  27  49 N7        29.80F
FRONT ROYAL*   CLOUDY    43  32  65 N6        29.80S
LURAY*         CLOUDY    45  36  70 NE3       29.79F
NEW MARKET*    CLOUDY    44  31  58 NE6       29.79F
STAUNTON*      CLOUDY    44  33  65 N5        29.80F
WAYNESBORO*    CLOUDY    39  34  81 NE6       29.79S

$$

WVZ021-048>050-054>055-271800-
EASTERN WEST VIRGINIA PANHANDLE

CITY           SKY/WX    TMP DP  RH WIND       PRES   REMARKS
MARTINSBURG    CLOUDY    46  27  47 NW12      29.81F
PETERSBURG*    CLOUDY    44  26  48 NW13      29.82S

$$

VAZ036>039-050-271800-
CENTRAL FOOTHILLS

CITY           SKY/WX    TMP DP  RH WIND       PRES   REMARKS
CHARLOTTESVILL CLOUDY    44  39  82 E8        29.81F
CULPEPER*      CLOUDY    46  34  61 N10       29.82F
ORANGE*        CLOUDY    43  36  75 NE5       29.83F
GORDONSVILLE*  CLOUDY    41  37  84 NE5       29.82S
WARRENTON*     CLOUDY    45  38  76 N6        29.81S

$$

VAZ055>057-271800-
NORTH AND CENTRAL PIEDMONT

CITY           SKY/WX    TMP DP  RH WIND       PRES   REMARKS
FREDERICKSBRG* LGT RAIN  42  37  83 NE3       29.82F
STAFFORD*      LGT RAIN  40  40 100 CALM      29.87S

$$

NCZ024-NYZ072-PAZ021-071-VAZ022-071-271800-
OTHER REGIONAL OBSERVATIONS

CITY           SKY/WX    TMP DP  RH WIND       PRES   REMARKS
NEW YORK CITY  CLOUDY    44  35  70 VRB6      29.76S
PHILADELPHIA   CLOUDY    45  32  60 N14       29.78R
PITTSBURGH     FLURRIES  32  25  75 N10       29.88S WCI  24
ROANOKE        CLOUDY    44  33  65 NW12      29.82F
RICHMOND       RAIN      41  37  86 N13       29.83S
RALEIGH        CLOUDY    46  43  89 NE8       29.77F

$$

ANZ530>537-271800-
MARINE OBSERVATIONS

STATION/POSITION TIME  TEMP    WIND        PRES
                       AIR SEA DIR/SP/G
                 (UTC) (F)     (DEG/KT/KT) (MB)
THOMAS PT LIGHT  1700                        N/A
BALT KEY BRIDGE  1600   44     360/  7/  9 1009.4R
COVE POINT       1600   40     350/ 19/ 20 1009.2R
LEWISETTA        1600   42 46              1009.6R
SOLOMONS ISLAND  1600      44                N/A
PINEY POINT      1606           10/ 12/ 14   N/A

$$




USA.gov is the U.S. government's official web portal to all federal, state and local government web resources and services.